Location: Barbechat
(47.2775°N, 1.2852°W)
Time: 17:43:22
(UTC+00:00)

Daily predictions for brighter satellites

Satellite Brightness Start Highest point End
(mag) Time Altitude Azimuth Time Altitude Azimuth Time Altitude Azimuth
Cosmos 1975 Rocket 4.0 20:41:28 10° SSE 20:45:22 31° E 20:49:17 10° NNE
H-2A R/B 2.5 20:43:35 10° N 20:47:56 71° WNW 20:52:20 10° SSW
Helios 1A Rocket 4.0 20:44:24 10° SE 20:48:02 32° ENE 20:51:40 10° N
Ariane Rocket 3.1 20:44:05 10° SSE 20:49:11 89° WSW 20:54:20 10° NNW
CARTOSAT-1 3.7 20:45:33 10° SSE 20:49:49 66° ENE 20:54:07 10° N
Resurs 01 Rocket 2.3 20:49:18 10° S 20:53:39 57° W 20:58:04 10° NNW
IRAS Rocket 4.3 20:48:47 10° NNE 20:54:24 67° ESE 20:59:57 10° S
Lacrosse 4 Rocket 1.6 20:52:16 10° SW 20:56:25 73° WNW 21:00:31 10° NNE
Cosmos 292 Rocket 4.3 20:51:46 10° SSW 20:56:29 63° WNW 21:01:12 10° NNE
Tiangong 2.5 20:54:57 10° SW 20:57:23 20° SSE 20:59:51 10° ESE
DELTA 2 R/B (1) 4.4 20:54:39 10° WSW 20:59:39 34° S 21:04:40 10° SE
FALCON 9 DEB 3.1 21:01:48 10° SW 21:04:58 51° SE 21:08:09 10° ENE
SL-8 R/B 3.7 21:01:56 10° WSW 21:06:45 82° SSE 21:11:36 10° ENE
Terra 2.6 21:02:53 10° SE 21:07:17 39° ENE 21:11:41 10° N
USA 267 3.4 21:04:39 10° ENE 21:10:59 50° SE 21:17:17 10° SSW
Cosmos 1455 3.4 21:08:35 10° NNE 21:11:52 27° ENE 21:14:42 12° SE
Meteor 1-24 Rocket 4.0 21:06:53 10° SSE 21:11:53 44° E 21:16:58 10° NNE
Cosmos 2369 Rocket 3.5 21:07:59 10° NW 21:12:58 34° WSW 21:17:58 10° SSW
Cosmos 2315 Rocket 4.2 21:06:50 10° S 21:13:03 59° E 21:19:15 10° NNE
Cosmos 1371 Rocket 4.4 21:12:38 10° S 21:17:32 44° ESE 21:22:32 10° NNE
ERBS 4.1 21:16:47 10° W 21:18:57 18° SW 21:21:08 10° S
Spot 2 Rocket 3.5 21:15:27 11° SSE 21:20:23 75° ENE 21:25:30 10° N
ARIANE 5 R/B 3.3 21:23:37 14° SE 21:27:13 43° ENE 21:31:27 10° N
CZ-4B R/B 3.4 21:24:52 10° NNW 21:27:20 25° WNW 21:29:47 10° SW
Lacrosse 5 rocket 2.0 21:24:10 10° NW 21:27:53 47° NNE 21:31:47 10° ESE
SPOT 3 Rocket 3.9 21:23:08 10° S 21:28:16 64° WSW 21:33:28 10° NNW
Cosmos 1709 Rocket 4.0 21:22:54 10° N 21:29:06 87° W 21:35:21 10° S
Cosmos 2084 4.4 21:26:52 14° SSE 21:29:12 23° ESE 21:32:16 10° ENE
ATLAS 2AS CENTAUR R/B 3.0 21:31:46 10° NW 21:38:56 63° NE 21:44:51 13° SE
Cosmos 1624 Rocket 4.0 21:34:07 10° S 21:39:17 63° ESE 21:44:27 10° NNE
Cosmos 1190 Rocket 4.1 21:38:05 10° NNW 21:43:26 81° WSW 21:47:39 16° SSE
NOSS 3-4 (C) 4.5 21:37:40 10° NW 21:44:24 49° WSW 21:51:05 13° S
USA 234 3.5 21:39:10 10° ESE 21:45:40 71° NNE 21:52:13 10° NW
Cosmos 1833 Rocket 4.4 21:44:37 13° ESE 21:46:26 15° E 21:49:31 10° ENE
Cosmos 407 Rocket 4.2 21:45:32 10° NNW 21:50:31 48° WSW 21:54:51 13° S
Cosmos 1455 Rocket 3.7 21:46:33 10° NNW 21:50:47 50° W 21:54:41 12° SSW
SPOT 5 3.3 21:52:00 13° S 21:55:54 51° W 22:00:12 10° NNW
Cosmos 1271 Rocket 2.7 21:54:46 10° N 21:58:47 88° ENE 22:01:16 22° S
Cosmos 2056 Rocket 3.6 21:53:35 10° SSW 21:58:57 89° ESE 22:04:25 10° NNE
Meteor 2-5 Rocket 4.1 21:55:33 10° SSW 22:01:01 64° WNW 22:06:33 10° N
Cosmos 1025 Rocket 3.7 21:57:53 10° SSW 22:02:02 52° WNW 22:06:14 10° N
ERS-1 Rocket 3.7 22:04:36 14° S 22:08:46 48° W 22:13:40 10° NNW
Cosmos 676 Rocket 4.1 22:04:35 10° NNW 22:09:56 80° WSW 22:13:24 22° SSE
USA 32 4.4 22:04:46 10° SSW 22:09:57 64° W 22:15:10 10° N
Cosmos 1420 Rocket 4.0 22:06:00 10° SSW 22:11:14 88° WNW 22:16:33 10° NNE
Cosmos 489 Rocket 4.5 22:09:54 10° NNW 22:16:16 85° ENE 22:20:31 22° SSE
Cosmos 1536 Rocket 3.4 22:13:48 22° S 22:16:30 76° E 22:20:51 10° NNE
Cosmos 1607 3.9 22:10:16 10° SW 22:16:31 88° SE 22:22:45 10° NE
CZ-2C R/B 4.4 22:14:40 10° N 22:19:13 54° WNW 22:23:38 10° SSW
Lacrosse 5 1.9 22:19:20 10° NW 22:24:28 80° NE 22:27:56 21° ESE
NOSS 2-1 (E) 4.1 22:20:43 10° NW 22:25:19 85° NE 22:29:25 22° SE
Cosmos 1606 Rocket 4.2 22:21:22 10° N 22:25:29 42° ENE 22:27:26 26° SE
SAR-Lupe-4 3.5 22:24:13 10° NNE 22:27:48 75° ESE 22:29:21 32° S
Cosmos 2184 Rocket 4.0 22:23:31 10° N 22:29:43 83° W 22:33:50 22° S
Cosmos 724 4.2 22:24:23 11° SSW 22:29:58 68° ESE 22:35:44 10° NE
Tiangong 2.8 22:30:59 10° WSW 22:32:27 21° SW 22:32:27 21° SW
TSX-5 4.4 22:33:04 29° S 22:35:04 53° ESE 22:40:19 10° NE
Cosmos 1850 Rocket 4.1 22:31:00 10° NNW 22:36:14 71° ENE 22:39:02 27° SE
Cosmos 1328 4.4 22:37:12 32° SE 22:38:27 42° E 22:42:15 10° NNE
Meteor 1-21 Rocket 4.2 22:35:49 25° S 22:39:01 66° E 22:44:36 10° NNE
Cosmos 2228 2.9 22:35:03 10° N 22:39:19 89° ENE 22:41:10 33° S
Cosmos 1703 3.2 22:38:48 29° SSW 22:40:42 78° W 22:44:34 10° N
SAR-Lupe-1 4.4 22:39:47 10° N 22:43:20 62° WNW 22:45:11 25° SSW
Cosmos 1408 4.1 22:43:33 21° E 22:43:52 21° E 22:46:31 10° NE
Terra 3.4 22:41:45 13° SSW 22:45:07 27° W 22:49:12 10° NW
Cosmos 1455 4.1 22:44:09 10° NW 22:47:13 23° W 22:49:28 14° SW
Cosmos 1825 4.4 22:46:54 12° E 22:47:27 12° E 22:49:01 10° ENE
ALOS 2 3.7 22:46:37 23° ESE 22:48:40 35° ENE 22:52:41 10° N
SL-8 R/B 3.8 22:44:34 10° W 22:49:24 77° N 22:54:15 10° E
Cosmos 1726 Rocket 3.7 22:47:40 10° N 22:51:58 61° ENE 22:53:36 35° SE
USA 267 3.7 22:47:41 10° NE 22:54:08 65° NNW 23:00:36 10° WSW
Cosmos 1980 Rocket 3.4 22:49:42 10° NNW 22:54:56 35° NE 22:59:14 14° ESE
RESURS DK-1 2.5 22:53:19 10° NNW 22:57:27 66° ENE 22:59:03 35° SE
Cosmos 1697 Rocket 2.9 22:53:56 10° NNW 22:59:33 66° ENE 23:02:42 26° SE
Cosmos 1331 Rocket 4.1 22:57:21 31° S 22:59:47 59° ESE 23:05:01 10° NNE
Cosmos 1452 Rocket 3.5 22:57:19 21° SSW 23:00:54 82° WNW 23:06:13 10° NNE
Spot 4 3.8 23:04:25 35° SSE 23:06:29 84° ENE 23:11:17 10° NNW
Lacrosse 5 rocket 2.2 23:03:17 10° WNW 23:06:49 32° SW 23:07:17 31° SW
Cosmos 1892 3.5 23:06:34 33° ESE 23:07:08 35° E 23:10:35 10° NNE
USA 276 3.9 23:10:14 19° ENE 23:10:14 19° ENE 23:11:12 10° ENE
Cosmos 2084 4.3 23:04:42 10° WSW 23:08:23 43° NW 23:12:07 10° NNE
ASTEX 1 3.5 23:03:59 10° N 23:08:58 72° W 23:11:35 28° SSW
ERS-2 3.6 23:06:27 10° NE 23:09:18 22° E 23:09:26 22° E
ADEOS Rocket 3.7 23:05:35 24° SE 23:09:57 63° ENE 23:17:23 10° N
Meteor 2-1 Rocket 4.3 23:08:52 10° NNW 23:14:20 66° W 23:17:01 30° S
Cosmos 2058 Rocket 3.2 23:10:50 10° N 23:15:12 63° ENE 23:16:43 38° SE
Cosmos 1110 Rocket 4.0 23:15:12 28° SSW 23:18:02 90° WNW 23:23:21 10° NNE
Cosmos 2181 Rocket 4.3 23:15:18 29° SSE 23:18:10 53° E 23:24:10 10° NNE
GP-B 3.2 23:16:56 10° N 23:21:21 69° W 23:23:05 36° SSW
Cosmos 2360 4.2 23:16:29 10° NNW 23:22:15 89° WSW 23:25:01 32° SSE
Cosmos 1302 Rocket 4.4 23:21:10 34° SSE 23:22:51 46° ESE 23:27:50 10° NNE
Cosmos 1892 Rocket 3.5 23:22:22 39° S 23:23:58 88° W 23:28:24 10° N
Cosmos 1656 4.4 23:21:03 10° NW 23:26:07 40° WSW 23:28:19 28° SSW
USA 234 3.7 23:26:12 29° S 23:28:56 43° SW 23:35:09 10° WNW
ATLAS 2AS CENTAUR R/B 3.6 23:23:18 10° NW 23:29:26 34° WSW 23:32:16 24° SSW
Cosmos 1833 Rocket 2.6 23:26:16 26° SSW 23:29:32 88° WNW 23:35:12 10° NNE
BREEZE-M DEB (TANK) 3.9 23:35:58 10° WNW 23:39:09 74° N 23:51:12 10° E
Okean 1-7 Rocket 3.8 23:39:49 41° SSE 23:41:00 56° E 23:45:23 10° NNE
Cosmos 1626 Rocket 3.9 23:42:03 40° SE 23:43:07 50° E 23:47:19 10° NNE
Cosmos 2082 Rocket 2.5 23:41:32 35° SSE 23:43:39 54° ESE 23:49:13 10° NE
Meteor 1-27 4.2 23:43:17 10° N 23:48:54 80° ENE 23:51:21 35° SSE
Cosmos 1869 3.3 23:46:14 10° N 23:50:06 68° E 23:50:55 50° SE
ATLAS 5 CENTAUR R/B 3.5 23:51:03 12° E 23:51:03 12° E 23:52:04 10° E
BREEZE-M DEB (TANK) 3.6 23:44:50 10° WSW 23:55:49 70° SSE 23:59:14 10° ENE
Cosmos-2242 4.0 23:51:56 10° N 23:55:54 37° ENE 23:57:29 27° ESE
